contact:dominique.lefevre@mio.osupytheas.fr, maurice.libes@osupytheas.fr
Project:EMSO Ligure-ouest http://www.emso-fr.org/EMSO-France
Sensor Aquadopp, line 04 Serial AQD8517 
DOI : "https://doi.org/10.17882/74513; https://doi.org/10.17882/83244" 
Title:EMSO Ligure Ouest : Data ligne ALBATROSS capteur AQUADOPP - deploiement 2021
Id,Date,Profondeur,Latitude,Longitude,X_East,Y_North,Z_Up,Amplitude_X,Amplitude_Y,Amplitude_Z,Batterie,SoundSpeed,Heading,Pitch,Roll,Pressure,Temperature,Speed,Direction
, , m, degrees North, degrees East, m.s-1, m.s-1,m.s-1, 1, 1, 1, Volt, m.s-1, degree, degree, degree, dbar, degree_C, m.s-1, degree
04,2021-11-24T21:30:00,1000.0,42.79,6.0312,0.004,0.011,0.012,55.0,52.0,55.0,12.7,1504.6,96.4,-0.4,-0.4,967.737,13.27,0.011,20.0
04,2021-11-24T22:00:00,1000.0,42.79,6.0312,-0.002,0.021,0.021,54.0,52.0,54.0,12.7,1504.6,103.6,-0.4,-0.4,967.744,13.27,0.021,354.6
04,2021-11-24T22:30:00,1000.0,42.79,6.0312,0.007,0.016,0.009,51.0,55.0,50.0,12.7,1504.6,102.0,-0.4,-0.3,967.736,13.27,0.017,23.6
04,2021-11-24T23:00:00,1000.0,42.79,6.0312,0.005,0.022,0.01,54.0,54.0,51.0,12.7,1504.6,103.4,-0.4,-0.4,967.723,13.27,0.022,12.8
04,2021-11-24T23:30:00,1000.0,42.79,6.0312,0.006,0.002,0.013,52.0,54.0,51.0,12.7,1504.6,112.6,-0.4,-0.4,967.704,13.27,0.006,71.6
04,2021-11-25T00:00:00,1000.0,42.79,6.0312,0.009,0.005,0.011,53.0,55.0,51.0,12.7,1504.6,116.6,-0.3,-0.3,967.666,13.27,0.01,60.9
04,2021-11-25T00:30:00,1000.0,42.79,6.0312,0.006,0.019,-0.001,52.0,53.0,50.0,12.7,1504.6,106.7,-0.4,-0.4,967.658,13.27,0.019,17.5
04,2021-11-25T01:00:00,1000.0,42.79,6.0312,0.011,0.02,-0.002,52.0,57.0,50.0,12.7,1504.6,101.9,-0.4,-0.3,967.641,13.27,0.022,28.8
04,2021-11-25T01:30:00,1000.0,42.79,6.0312,0.019,0.019,-0.004,52.0,54.0,50.0,12.7,1504.7,98.4,-0.4,-0.4,967.669,13.28,0.026,45.0
04,2021-11-25T02:00:00,1000.0,42.79,6.0312,0.029,0.029,-0.005,51.0,59.0,51.0,12.7,1504.7,99.6,-0.4,-0.4,967.65,13.28,0.041,45.0
04,2021-11-25T02:30:00,1000.0,42.79,6.0312,0.025,0.016,0.004,52.0,52.0,50.0,12.7,1504.7,105.5,-0.4,-0.4,967.661,13.28,0.029,57.4
04,2021-11-25T03:00:00,1000.0,42.79,6.0312,0.017,0.015,-0.002,51.0,53.0,53.0,12.7,1504.7,110.3,-0.4,-0.3,967.61,13.28,0.022,48.6
04,2021-11-25T03:30:00,1000.0,42.79,6.0312,0.024,0.018,-0.007,51.0,54.0,51.0,12.7,1504.7,110.7,-0.3,-0.4,967.604,13.28,0.03,53.1
04,2021-11-25T04:00:00,1000.0,42.79,6.0312,0.029,0.029,-0.009,52.0,52.0,50.0,12.7,1504.7,109.9,-0.4,-0.4,967.605,13.28,0.041,45.0
04,2021-11-25T04:30:00,1000.0,42.79,6.0312,0.025,0.014,-0.007,51.0,55.0,50.0,12.7,1504.7,102.5,-0.4,-0.4,967.61,13.28,0.028,60.7
04,2021-11-25T05:00:00,1000.0,42.79,6.0312,0.015,0.022,0.0,52.0,52.0,52.0,12.7,1504.7,99.4,-0.4,-0.4,967.613,13.29,0.026,34.3
04,2021-11-25T05:30:00,1000.0,42.79,6.0312,0.023,0.028,0.007,50.0,51.0,52.0,12.7,1504.7,98.4,-0.4,-0.4,967.62,13.29,0.036,39.4
04,2021-11-25T06:00:00,1000.0,42.79,6.0312,0.029,0.019,0.015,51.0,52.0,50.0,12.7,1504.7,101.0,-0.4,-0.4,967.641,13.28,0.034,56.8
04,2021-11-25T06:30:00,1000.0,42.79,6.0312,0.033,0.01,0.007,51.0,53.0,50.0,12.7,1504.7,104.4,-0.4,-0.4,967.662,13.28,0.034,73.1
04,2021-11-25T07:00:00,1000.0,42.79,6.0312,0.031,0.01,0.01,50.0,52.0,50.0,12.7,1504.7,110.6,-0.4,-0.4,967.678,13.28,0.032,72.1
04,2021-11-25T07:30:00,1000.0,42.79,6.0312,0.033,0.009,-0.009,52.0,52.0,50.0,12.7,1504.7,114.2,-0.4,-0.4,967.743,13.28,0.034,74.7
04,2021-11-25T08:00:00,1000.0,42.79,6.0312,0.034,0.007,0.014,51.0,52.0,50.0,12.7,1504.7,116.4,-0.4,-0.4,967.732,13.28,0.034,78.4
04,2021-11-25T08:30:00,1000.0,42.79,6.0312,0.033,0.005,0.0,52.0,53.0,51.0,12.7,1504.7,121.0,-0.4,-0.3,967.74,13.28,0.033,81.4
04,2021-11-25T09:00:00,1000.0,42.79,6.0312,0.034,0.0,0.011,56.0,56.0,51.0,12.7,1504.7,111.8,-0.4,-0.4,967.778,13.28,0.034,90.0
04,2021-11-25T09:30:00,1000.0,42.79,6.0312,0.029,-0.003,0.005,51.0,53.0,50.0,12.7,1504.7,104.0,-0.4,-0.4,967.782,13.28,0.029,95.9
04,2021-11-25T10:30:00,1000.0,42.79,6.0312,0.019,0.007,-0.002,52.0,51.0,51.0,12.7,1504.6,102.3,-0.4,-0.4,967.78,13.27,0.02,69.8
04,2021-11-25T11:00:00,1000.0,42.79,6.0312,0.024,0.006,0.006,53.0,52.0,49.0,12.7,1504.6,102.2,-0.4,-0.4,967.846,13.27,0.024,76.0
04,2021-11-25T11:30:00,1000.0,42.79,6.0312,0.016,0.001,0.002,49.0,53.0,54.0,12.7,1504.6,105.6,-0.4,-0.4,967.811,13.27,0.016,86.4
04,2021-11-25T12:00:00,1000.0,42.79,6.0312,0.025,0.014,-0.007,50.0,51.0,51.0,12.7,1504.6,112.5,-0.4,-0.4,967.798,13.27,0.028,60.7
04,2021-11-25T12:30:00,1000.0,42.79,6.0312,0.028,-0.001,-0.002,52.0,52.0,51.0,12.7,1504.6,120.7,-0.4,-0.3,967.819,13.27,0.028,92.0
04,2021-11-25T13:00:00,1000.0,42.79,6.0312,0.02,0.002,0.006,51.0,53.0,52.0,12.7,1504.6,129.5,-0.4,-0.4,967.802,13.27,0.02,84.3
04,2021-11-25T13:30:00,1000.0,42.79,6.0312,0.02,0.005,0.007,51.0,53.0,50.0,12.7,1504.7,126.3,-0.4,-0.3,967.771,13.28,0.02,76.0
04,2021-11-25T14:00:00,1000.0,42.79,6.0312,0.022,0.005,-0.009,54.0,51.0,51.0,12.7,1504.7,123.9,-0.4,-0.3,967.775,13.28,0.022,77.2
04,2021-11-25T14:30:00,1000.0,42.79,6.0312,0.027,0.012,-0.006,51.0,53.0,49.0,12.7,1504.7,122.8,-0.4,-0.4,967.735,13.28,0.029,66.0
04,2021-11-25T15:00:00,1000.0,42.79,6.0312,0.008,0.004,0.015,54.0,52.0,50.0,12.7,1504.7,124.4,-0.4,-0.3,967.711,13.28,0.008,63.4
04,2021-11-25T15:30:00,1000.0,42.79,6.0312,0.023,0.0,0.01,52.0,52.0,51.0,12.7,1504.6,131.3,-0.4,-0.3,967.734,13.27,0.023,90.0
04,2021-11-25T16:00:00,1000.0,42.79,6.0312,0.024,0.016,0.002,52.0,53.0,54.0,12.7,1504.7,132.8,-0.4,-0.3,967.729,13.28,0.028,56.3
04,2021-11-25T16:30:00,1000.0,42.79,6.0312,0.01,0.004,-0.023,51.0,51.0,54.0,12.7,1504.7,134.5,-0.4,-0.3,967.699,13.28,0.01,68.2
04,2021-11-25T17:00:00,1000.0,42.79,6.0312,0.027,0.02,-0.011,51.0,54.0,52.0,12.7,1504.7,122.1,-0.4,-0.4,967.724,13.28,0.033,53.5
04,2021-11-25T17:30:00,1000.0,42.79,6.0312,0.029,0.021,0.003,53.0,55.0,50.0,12.7,1504.7,116.9,-0.4,-0.3,967.688,13.29,0.035,54.1
04,2021-11-25T18:00:00,1000.0,42.79,6.0312,0.018,0.02,0.016,52.0,55.0,51.0,12.7,1504.7,124.1,-0.4,-0.3,967.726,13.29,0.026,42.0
04,2021-11-25T18:30:00,1000.0,42.79,6.0312,0.034,0.009,0.01,52.0,54.0,51.0,12.7,1504.7,125.5,-0.4,-0.3,967.655,13.28,0.035,75.2
04,2021-11-25T19:00:00,1000.0,42.79,6.0312,0.024,0.016,0.009,52.0,54.0,51.0,12.7,1504.7,128.8,-0.4,-0.4,967.677,13.28,0.028,56.3
04,2021-11-25T19:30:00,1000.0,42.79,6.0312,0.03,0.019,0.017,54.0,54.0,51.0,12.7,1504.7,127.5,-0.4,-0.4,967.669,13.28,0.035,57.7
04,2021-11-25T20:00:00,1000.0,42.79,6.0312,0.018,0.013,0.007,53.0,55.0,52.0,12.7,1504.7,128.4,-0.4,-0.4,967.692,13.28,0.022,54.2
04,2021-11-25T20:30:00,1000.0,42.79,6.0312,0.041,0.011,0.012,53.0,54.0,54.0,12.7,1504.7,130.1,-0.4,-0.4,967.664,13.28,0.042,75.0
04,2021-11-25T21:00:00,1000.0,42.79,6.0312,0.028,0.011,-0.001,54.0,54.0,53.0,12.7,1504.7,130.8,-0.4,-0.4,967.693,13.29,0.03,68.6
